Delta, CO

6:19 PM MDT on April 27, 2017 (GMT -0600)
Delta

Weather History for KAJZ - April, 2014

Change the Weather History Date:

Thursday, April 3, 2014

  Actual Average (KMTJ) Record (KMTJ)
Temperature  
Mean Temperature 43 °F -  
Max Temperature 55 °F 55 °F 71 °F (2002)
Min Temperature 31 °F 31 °F 25 °F (2015)
Degree Days  
Heating Degree Days 22    
Moisture  
Dew Point 22 °F    
Average Humidity 50    
Maximum Humidity 84    
Minimum Humidity 18    
Precipitation  
Precipitation 0.00 in - - ()
Sea Level Pressure  
Sea Level Pressure 29.92 in    
Wind  
Wind Speed 4 mph (North)    
Max Wind Speed 20 mph    
Max Gust Speed 25 mph    
Visibility 10 miles    
Events      
Averages and records for this station are not official NWS values.
T = Trace of Precipitation, MM = Missing Value Source: NWS Daily Summary

Daily Weather History Graph

Daily Weather History Graph

Search for Another Location

Airport or City:

Trip Planner

Search our weather history database for the weather conditions in past years. The results will help you decide how hot, cold, wet, or windy it might be!

Date:

Astronomy

Apr. 03, 2014 Rise Set
Actual Time 6:53 AM MDT 7:37 PM MDT
Civil Twilight 6:26 AM MDT 8:04 PM MDT
Nautical Twilight 5:55 AM MDT 8:36 PM MDT
Astronomical Twilight 5:22 AM MDT 9:09 PM MDT
Moon 9:27 AM MDT (4/3) 11:57 PM MDT (4/3)
Length of Visible Light 13h 37m
Length of Day
12h 44m
Waxing Crescent, 18% of the Moon is Illuminated
Apr 3
Waxing Crescent
Apr 7
First Quarter
Apr 15
Full
Apr 22
Last Quarter
Apr 29
New

Hourly Weather History & Observations

Time (MDT) Temp. Windchill Dew Point Humidity Pressure Visibility Wind Dir Wind Speed Gust Speed Precip Events Conditions
12:15 AM 37.6 °F 35.1 °F 31.8 °F 80% 29.79 in 10.0 mi North 3.5 mph - N/A   Scattered Clouds
12:35 AM 37.8 °F - 31.6 °F 79% 29.79 in 10.0 mi Calm Calm - N/A   Scattered Clouds
12:55 AM 37.4 °F 34.9 °F 30.2 °F 75% 29.79 in 10.0 mi West 3.5 mph - N/A   Clear
1:15 AM 37.4 °F - 29.8 °F 74% 29.79 in 10.0 mi Calm Calm - N/A   Clear
1:35 AM 36.5 °F 32.7 °F 30.2 °F 78% 29.79 in 10.0 mi NNW 4.6 mph - N/A   Scattered Clouds
1:55 AM 36.7 °F - 30.2 °F 77% 29.79 in 10.0 mi Calm Calm - N/A   Mostly Cloudy
2:15 AM 36.9 °F - 30.4 °F 77% 29.79 in 10.0 mi Calm Calm - N/A   Overcast
2:35 AM 36.9 °F - 30.7 °F 79% 29.79 in 10.0 mi Calm Calm - N/A   Overcast
2:55 AM 37.4 °F - 30.7 °F 77% 29.78 in 10.0 mi Calm Calm - N/A   Overcast
3:15 AM 37.2 °F 33.6 °F 30.2 °F 76% 29.78 in 10.0 mi NE 4.6 mph - N/A   Mostly Cloudy
3:35 AM 36.1 °F 32.3 °F 30.0 °F 78% 29.78 in 10.0 mi NE 4.6 mph - N/A   Scattered Clouds
3:55 AM 35.2 °F 30.3 °F 30.0 °F 81% 29.79 in 10.0 mi NNE 5.8 mph - N/A   Scattered Clouds
4:15 AM 35.6 °F - 30.6 °F 82% 29.79 in 10.0 mi Calm Calm - N/A   Mostly Cloudy
4:35 AM 34.9 °F 29.9 °F 30.0 °F 82% 29.79 in 10.0 mi NNW 5.8 mph - N/A   Mostly Cloudy
4:55 AM 36.1 °F - 30.9 °F 81% 29.79 in 10.0 mi Calm Calm - N/A   Overcast
5:15 AM 35.2 °F 30.3 °F 30.0 °F 81% 29.80 in 10.0 mi NNE 5.8 mph - N/A   Overcast
5:35 AM 33.8 °F 29.6 °F 29.1 °F 83% 29.81 in 10.0 mi NNE 4.6 mph - N/A   Scattered Clouds
5:55 AM 33.3 °F 30.2 °F 28.8 °F 84% 29.81 in 10.0 mi NNW 3.5 mph - N/A   Clear
6:15 AM 34.2 °F - 28.9 °F 81% 29.82 in 10.0 mi Calm Calm - N/A   Clear
6:35 AM 33.8 °F - 28.6 °F 81% 29.83 in 10.0 mi Calm Calm - N/A   Clear
6:55 AM 31.6 °F 27.0 °F 27.1 °F 83% 29.84 in 10.0 mi East 4.6 mph - N/A   Clear
7:15 AM 31.3 °F 25.6 °F 27.0 °F 84% 29.85 in 10.0 mi ENE 5.8 mph - N/A   Clear
7:35 AM 31.6 °F 28.3 °F 27.1 °F 83% 29.86 in 10.0 mi NNE 3.5 mph - N/A   Clear
7:55 AM 32.9 °F 28.5 °F 28.0 °F 82% 29.87 in 10.0 mi North 4.6 mph - N/A   Scattered Clouds
8:15 AM 34.9 °F - 29.1 °F 79% 29.88 in 10.0 mi Calm Calm - N/A   Scattered Clouds
8:35 AM 36.7 °F - 29.7 °F 76% 29.88 in 10.0 mi Calm Calm - N/A   Scattered Clouds
8:55 AM 37.8 °F 35.3 °F 29.8 °F 73% 29.89 in 10.0 mi East 3.5 mph - N/A   Scattered Clouds
9:15 AM 39.2 °F 37.0 °F 29.8 °F 69% 29.90 in 10.0 mi NE 3.5 mph - N/A   Scattered Clouds
9:35 AM 41.2 °F 39.2 °F 29.1 °F 62% 29.90 in 10.0 mi East 3.5 mph - N/A   Clear
9:55 AM 42.4 °F 40.7 °F 28.2 °F 57% 29.91 in 10.0 mi NE 3.5 mph - N/A   Clear
10:15 AM 45.5 °F 42.5 °F 21.7 °F 39% 29.92 in 10.0 mi NNW 5.8 mph - N/A   Scattered Clouds
10:35 AM 45.5 °F 44.2 °F 21.7 °F 39% 29.93 in 10.0 mi NNW 3.5 mph - N/A   Scattered Clouds
10:55 AM 46.6 °F - 20.8 °F 36% 29.93 in 10.0 mi WNW 3.5 mph - N/A   Mostly Cloudy
11:15 AM 48.0 °F - 19.4 °F 32% 29.94 in 10.0 mi NW 4.6 mph - N/A   Overcast
11:35 AM 50.5 °F - 17.8 °F 27% 29.94 in 10.0 mi NE 11.5 mph 18.4 mph N/A   Scattered Clouds
11:55 AM 49.8 °F - 18.1 °F 29% 29.95 in 10.0 mi NE 5.8 mph - N/A   Clear
12:15 PM 48.7 °F - 16.0 °F 27% 29.95 in 10.0 mi NNE 9.2 mph - N/A   Clear
12:35 PM 50.9 °F - 16.7 °F 26% 29.95 in 10.0 mi North 4.6 mph - N/A   Clear
12:55 PM 51.1 °F - 14.7 °F 24% 29.95 in 10.0 mi SW 3.5 mph - N/A   Scattered Clouds
1:15 PM 50.5 °F - 14.9 °F 24% 29.95 in 10.0 mi Calm Calm - N/A   Scattered Clouds
1:35 PM 53.1 °F - 14.4 °F 22% 29.95 in 10.0 mi North 6.9 mph - N/A   Scattered Clouds
1:55 PM 50.9 °F - 14.4 °F 23% 29.96 in 10.0 mi North 6.9 mph - N/A   Scattered Clouds
2:15 PM 52.0 °F - 14.5 °F 23% 29.95 in 10.0 mi NW 8.1 mph - N/A   Mostly Cloudy
2:35 PM 53.6 °F - 13.6 °F 21% 29.96 in 10.0 mi WNW 9.2 mph 20.7 mph N/A   Mostly Cloudy
2:55 PM 54.0 °F - 12.2 °F 19% 29.96 in 10.0 mi NNW 5.8 mph - N/A   Mostly Cloudy
3:15 PM 53.4 °F - 13.3 °F 20% 29.96 in 10.0 mi ENE 4.6 mph - N/A   Overcast
3:35 PM 52.2 °F - 14.0 °F 22% 29.96 in 10.0 mi East 4.6 mph - N/A   Overcast
3:55 PM 51.8 °F - 16.5 °F 25% 29.96 in 10.0 mi ENE 6.9 mph - N/A   Overcast
4:15 PM 51.6 °F - 16.2 °F 25% 29.96 in 10.0 mi ESE 5.8 mph - N/A   Overcast
4:35 PM 53.6 °F - 15.8 °F 22% 29.96 in 10.0 mi East 6.9 mph - N/A   Mostly Cloudy
4:55 PM 54.5 °F - 14.7 °F 21% 29.98 in 10.0 mi NE 5.8 mph - N/A   Mostly Cloudy
5:15 PM 55.4 °F - 13.3 °F 19% 29.98 in 10.0 mi East 4.6 mph - N/A   Scattered Clouds
5:35 PM 55.6 °F - 11.8 °F 18% 29.98 in 10.0 mi West 19.6 mph 25.3 mph N/A   Mostly Cloudy
5:55 PM 54.1 °F - 14.5 °F 21% 29.99 in 10.0 mi West 17.3 mph 24.2 mph N/A   Mostly Cloudy
6:15 PM 53.6 °F - 12.9 °F 20% 29.99 in 10.0 mi West 15.0 mph 19.6 mph N/A   Clear
6:35 PM 52.7 °F - 12.2 °F 20% 30.00 in 10.0 mi WNW 15.0 mph 23.0 mph N/A   Clear
6:55 PM 51.8 °F - 12.6 °F 21% 30.00 in 10.0 mi West 11.5 mph - N/A   Clear
7:15 PM 50.9 °F - 14.5 °F 24% 30.02 in 10.0 mi West 9.2 mph - N/A   Clear
7:35 PM 49.3 °F - 15.1 °F 26% 30.02 in 10.0 mi NW 8.1 mph - N/A   Clear
7:55 PM 49.1 °F - 13.6 °F 24% 30.02 in 10.0 mi WNW 5.8 mph - N/A   Clear
8:15 PM 47.3 °F - 12.6 °F 25% 30.03 in 10.0 mi WNW 8.1 mph - N/A   Clear
8:35 PM 43.7 °F 42.1 °F 14.5 °F 31% 30.04 in 10.0 mi NE 3.5 mph - N/A   Clear
9:55 PM 38.3 °F 35.9 °F 16.3 °F 41% 30.08 in 10.0 mi North 3.5 mph - N/A   Clear
10:15 PM 38.3 °F 32.5 °F 16.5 °F 41% 30.08 in 10.0 mi NNE 8.1 mph - N/A   Clear
10:35 PM 38.5 °F 33.4 °F 16.3 °F 41% 30.09 in 10.0 mi NNE 6.9 mph - N/A   Clear
10:55 PM 38.5 °F 36.1 °F 13.8 °F 37% 30.10 in 10.0 mi NNE 3.5 mph - N/A   Clear
11:15 PM 35.8 °F 31.9 °F 14.5 °F 42% 30.10 in 10.0 mi ENE 4.6 mph - N/A   Clear
11:35 PM 35.8 °F 28.8 °F 15.4 °F 44% 30.11 in 10.0 mi NE 9.2 mph - N/A   Clear
11:55 PM 36.7 °F 31.2 °F 17.2 °F 45% 30.11 in 10.0 mi ENE 6.9 mph - N/A   Clear